UAL1202 KIAD-KEWR

Flight info

Callsign UAL1202
Flight time 0h 38m
Altitude 29000
Route JCOBY4 SWANN PHLBO4
Aircraft B772/H-SDE2E3FGHIJ5LORVWXY/LB1D1

Departure

Time 2026-04-24 06:44
Airport Washington Dulles International Airport (KIAD)

Arrival

Time 2026-04-24 07:22
Airport Newark Liberty International Airport (KEWR)
Time Latitude Longitude Altitude Speed Heading
2026-04-24 06:36 38.94602 -77.45029 306 ft 3 kts 177°
2026-04-24 06:36 38.94621 -77.45030 304 ft 3 kts 178°
2026-04-24 06:36 38.94637 -77.45031 305 ft 3 kts 185°
2026-04-24 06:36 38.94653 -77.45026 305 ft 3 kts 229°
2026-04-24 06:37 38.94660 -77.45006 304 ft 3 kts 269°
2026-04-24 06:37 38.94660 -77.44983 304 ft 1 kts 271°
2026-04-24 06:37 38.94660 -77.44975 304 ft 0 kts 270°
2026-04-24 06:40 38.94659 -77.45043 304 ft 13 kts 271°
2026-04-24 06:40 38.94661 -77.45155 305 ft 13 kts 271°
2026-04-24 06:41 38.94663 -77.45267 305 ft 13 kts 270°
2026-04-24 06:41 38.94663 -77.45379 305 ft 13 kts 270°
2026-04-24 06:41 38.94664 -77.45491 305 ft 13 kts 270°
2026-04-24 06:41 38.94640 -77.45592 307 ft 13 kts 215°
2026-04-24 06:42 38.94554 -77.45610 307 ft 13 kts 181°
2026-04-24 06:42 38.94454 -77.45612 307 ft 23 kts 180°
2026-04-24 06:42 38.94274 -77.45613 306 ft 26 kts 179°
2026-04-24 06:42 38.94093 -77.45617 308 ft 26 kts 181°
2026-04-24 06:43 38.93912 -77.45619 306 ft 26 kts 180°
2026-04-24 06:43 38.93728 -77.45624 306 ft 26 kts 188°
2026-04-24 06:43 38.93558 -77.45697 307 ft 26 kts 201°
2026-04-24 06:43 38.93438 -77.45842 303 ft 28 kts 275°
2026-04-24 06:44 38.93542 -77.46214 306 ft 76 kts 291°
2026-04-24 06:44 38.93840 -77.47218 309 ft 162 kts 291°
2026-04-24 06:44 38.94303 -77.48717 968 ft 180 kts 292°
2026-04-24 06:44 38.94761 -77.50173 2273 ft 171 kts 294°
2026-04-24 06:45 38.95563 -77.51302 2977 ft 187 kts 334°
2026-04-24 06:45 38.96949 -77.51422 3355 ft 221 kts 15°
2026-04-24 06:45 38.98274 -77.50257 3799 ft 240 kts 44°
2026-04-24 06:45 38.99520 -77.48755 4473 ft 252 kts 39°
2026-04-24 06:46 39.00891 -77.47240 5150 ft 266 kts 38°
2026-04-24 06:46 39.02278 -77.45732 5959 ft 273 kts 37°
2026-04-24 06:46 39.03739 -77.44134 6838 ft 277 kts 37°
2026-04-24 06:46 39.05212 -77.42515 7707 ft 281 kts 36°
2026-04-24 06:47 39.06705 -77.40876 8573 ft 285 kts 35°
2026-04-24 06:47 39.08231 -77.39209 9382 ft 289 kts 35°
2026-04-24 06:47 39.09764 -77.37523 10146 ft 293 kts 35°
2026-04-24 06:47 39.11362 -77.35764 10502 ft 314 kts 35°
2026-04-24 06:48 39.13063 -77.33889 10750 ft 337 kts 37°
2026-04-24 06:48 39.14643 -77.31595 11076 ft 355 kts 57°
2026-04-24 06:48 39.15351 -77.28505 11958 ft 369 kts 83°
2026-04-24 06:48 39.15096 -77.25199 13119 ft 374 kts 101°
2026-04-24 06:49 39.14511 -77.22017 14141 ft 380 kts 101°
2026-04-24 06:49 39.13924 -77.18702 15342 ft 378 kts 102°
2026-04-24 06:49 39.13353 -77.15375 16205 ft 383 kts 102°
2026-04-24 06:49 39.12805 -77.11972 16856 ft 392 kts 101°
2026-04-24 06:50 39.12259 -77.08511 17493 ft 398 kts 100°
2026-04-24 06:50 39.11675 -77.04979 18257 ft 406 kts 99°
2026-04-24 06:50 39.11102 -77.01411 19168 ft 406 kts 97°
2026-04-24 06:50 39.10755 -76.97808 20033 ft 406 kts 90°
2026-04-24 06:51 39.10750 -76.94175 20802 ft 407 kts 83°
2026-04-24 06:51 39.10844 -76.91771 21279 ft 410 kts 82°
2026-04-24 06:51 39.11029 -76.86883 22103 ft 417 kts 85°
2026-04-24 06:51 39.11113 -76.84347 22441 ft 426 kts 84°
2026-04-24 06:52 39.11238 -76.80487 22858 ft 438 kts 83°
2026-04-24 06:52 39.11360 -76.76534 23487 ft 444 kts 84°
2026-04-24 06:52 39.11466 -76.72539 24155 ft 447 kts 84°
2026-04-24 06:52 39.11555 -76.68538 24771 ft 450 kts 84°
2026-04-24 06:53 39.11631 -76.64489 25400 ft 454 kts 84°
2026-04-24 06:53 39.11707 -76.60417 26001 ft 458 kts 83°
2026-04-24 06:53 39.11805 -76.56293 26616 ft 462 kts 83°
2026-04-24 06:53 39.11946 -76.52183 27046 ft 459 kts 80°
2026-04-24 06:54 39.12274 -76.48096 27199 ft 458 kts 75°
2026-04-24 06:54 39.12771 -76.44023 27203 ft 461 kts 74°
2026-04-24 06:54 39.13286 -76.39943 27249 ft 464 kts 75°
2026-04-24 06:54 39.13764 -76.35816 27344 ft 466 kts 75°
2026-04-24 06:55 39.14222 -76.31699 27479 ft 465 kts 75°
2026-04-24 06:55 39.14761 -76.27584 27874 ft 463 kts 68°
2026-04-24 06:55 39.15867 -76.23801 28622 ft 440 kts 54°
2026-04-24 06:55 39.17437 -76.20495 28933 ft 429 kts 44°
2026-04-24 06:56 39.19429 -76.17679 28912 ft 421 kts 32°
2026-04-24 06:56 39.23849 -76.12815 28925 ft 420 kts 31°
2026-04-24 06:57 39.28264 -76.07857 28913 ft 421 kts 31°
2026-04-24 06:57 39.32639 -76.02845 28913 ft 420 kts 31°
2026-04-24 06:58 39.36973 -75.97798 28908 ft 419 kts 31°
2026-04-24 06:58 39.41287 -75.92740 28936 ft 417 kts 31°
2026-04-24 06:59 39.45558 -75.87670 28905 ft 416 kts 31°
2026-04-24 06:59 39.49836 -75.82602 28082 ft 424 kts 31°
2026-04-24 06:59 39.51996 -75.80025 27152 ft 418 kts 32°
2026-04-24 07:00 39.54085 -75.77497 26526 ft 402 kts 31°
2026-04-24 07:00 39.56100 -75.75069 25943 ft 392 kts 30°
2026-04-24 07:00 39.58105 -75.72671 25403 ft 395 kts 31°
2026-04-24 07:00 39.60160 -75.70207 24864 ft 412 kts 32°
2026-04-24 07:01 39.62280 -75.67610 24277 ft 420 kts 33°
2026-04-24 07:01 39.64370 -75.65036 23688 ft 405 kts 32°
2026-04-24 07:01 39.66393 -75.62610 23053 ft 388 kts 31°
2026-04-24 07:01 39.68364 -75.60313 22480 ft 373 kts 29°
2026-04-24 07:02 39.70274 -75.58124 21981 ft 363 kts 29°
2026-04-24 07:02 39.72181 -75.55930 21508 ft 371 kts 30°
2026-04-24 07:02 39.74154 -75.53629 21059 ft 392 kts 32°
2026-04-24 07:02 39.76158 -75.51222 20483 ft 387 kts 32°
2026-04-24 07:03 39.78049 -75.48902 19959 ft 370 kts 32°
2026-04-24 07:03 39.79888 -75.46651 19479 ft 354 kts 31°
2026-04-24 07:03 39.81655 -75.44505 19015 ft 342 kts 30°
2026-04-24 07:03 39.83394 -75.42402 18598 ft 342 kts 30°
2026-04-24 07:04 39.85187 -75.40236 18146 ft 363 kts 32°
2026-04-24 07:04 39.87046 -75.37953 17581 ft 365 kts 33°
2026-04-24 07:04 39.88840 -75.35702 17058 ft 350 kts 32°
2026-04-24 07:04 39.90536 -75.33571 16596 ft 332 kts 31°
2026-04-24 07:05 39.92172 -75.31544 16189 ft 317 kts 30°
2026-04-24 07:05 39.93769 -75.29612 15842 ft 312 kts 30°
2026-04-24 07:05 39.95381 -75.27701 15448 ft 329 kts 30°
2026-04-24 07:05 39.97150 -75.25633 15029 ft 348 kts 31°
2026-04-24 07:06 39.98923 -75.23509 14534 ft 340 kts 32°
2026-04-24 07:06 40.00610 -75.21446 14051 ft 323 kts 32°
2026-04-24 07:06 40.02212 -75.19486 13612 ft 309 kts 31°
2026-04-24 07:06 40.03756 -75.17597 13145 ft 301 kts 31°
2026-04-24 07:07 40.05295 -75.15707 12712 ft 308 kts 31°
2026-04-24 07:07 40.06891 -75.13718 12207 ft 325 kts 33°
2026-04-24 07:07 40.10219 -75.09555 11190 ft 334 kts 32°
2026-04-24 07:08 40.11931 -75.07480 11037 ft 337 kts 32°
2026-04-24 07:08 40.13660 -75.05417 10888 ft 334 kts 32°
2026-04-24 07:08 40.15360 -75.03377 10143 ft 330 kts 32°
2026-04-24 07:08 40.17034 -75.01331 9138 ft 330 kts 32°
2026-04-24 07:09 40.18700 -74.99247 8419 ft 336 kts 34°
2026-04-24 07:09 40.20383 -74.97118 8188 ft 335 kts 34°
2026-04-24 07:09 40.22067 -74.95021 8020 ft 335 kts 33°
2026-04-24 07:09 40.23745 -74.92969 7997 ft 333 kts 33°
2026-04-24 07:10 40.25446 -74.90925 7988 ft 334 kts 34°
2026-04-24 07:10 40.27058 -74.88767 7981 ft 320 kts 37°
2026-04-24 07:10 40.28506 -74.86725 7974 ft 294 kts 34°
2026-04-24 07:10 40.29887 -74.84856 7811 ft 283 kts 33°
2026-04-24 07:11 40.31257 -74.83022 7631 ft 279 kts 33°
2026-04-24 07:11 40.32608 -74.81167 7430 ft 282 kts 35°
2026-04-24 07:11 40.33931 -74.79248 7254 ft 284 kts 36°
2026-04-24 07:11 40.35243 -74.77314 7049 ft 284 kts 37°
2026-04-24 07:12 40.36557 -74.75375 6854 ft 285 kts 37°
2026-04-24 07:12 40.37888 -74.73448 6647 ft 284 kts 36°
2026-04-24 07:12 40.39225 -74.71559 6295 ft 282 kts 36°
2026-04-24 07:12 40.40565 -74.69699 5696 ft 279 kts 37°
2026-04-24 07:13 40.41907 -74.67865 5188 ft 278 kts 39°
2026-04-24 07:13 40.42929 -74.65712 4692 ft 279 kts 65°
2026-04-24 07:13 40.43465 -74.63317 4420 ft 269 kts 68°
2026-04-24 07:13 40.43995 -74.60975 3998 ft 266 kts 67°
2026-04-24 07:14 40.44524 -74.58674 3598 ft 261 kts 66°
2026-04-24 07:14 40.45042 -74.56411 3271 ft 255 kts 66°
2026-04-24 07:14 40.45527 -74.54268 3174 ft 239 kts 65°
2026-04-24 07:14 40.45841 -74.52167 3206 ft 236 kts 86°
2026-04-24 07:15 40.45767 -74.50018 3269 ft 236 kts 91°
2026-04-24 07:15 40.46007 -74.47909 3238 ft 235 kts 64°
2026-04-24 07:15 40.46792 -74.46057 3257 ft 233 kts 60°
2026-04-24 07:15 40.47477 -74.44101 3276 ft 236 kts 66°
2026-04-24 07:16 40.48050 -74.42102 3276 ft 235 kts 68°
2026-04-24 07:16 40.48581 -74.40075 3276 ft 234 kts 69°
2026-04-24 07:16 40.49094 -74.38047 3276 ft 235 kts 70°
2026-04-24 07:16 40.49589 -74.36004 3278 ft 231 kts 70°
2026-04-24 07:17 40.50066 -74.34022 3259 ft 226 kts 69°
2026-04-24 07:17 40.50538 -74.32072 3152 ft 228 kts 69°
2026-04-24 07:17 40.51019 -74.30070 2984 ft 226 kts 69°
2026-04-24 07:17 40.51649 -74.28266 2816 ft 215 kts 44°
2026-04-24 07:18 40.52797 -74.27167 2658 ft 195 kts 26°
2026-04-24 07:18 40.53921 -74.26309 2503 ft 180 kts 24°
2026-04-24 07:18 40.55027 -74.25555 2351 ft 179 kts 25°
2026-04-24 07:18 40.56143 -74.24809 2222 ft 179 kts 24°
2026-04-24 07:19 40.57249 -74.24099 2109 ft 176 kts 22°
2026-04-24 07:19 40.58346 -74.23412 2046 ft 169 kts 22°
2026-04-24 07:19 40.59337 -74.22784 1898 ft 148 kts 22°
2026-04-24 07:19 40.60206 -74.22233 1723 ft 131 kts 20°
2026-04-24 07:20 40.61003 -74.21732 1582 ft 126 kts 21°
2026-04-24 07:20 40.61800 -74.21223 1398 ft 128 kts 21°
2026-04-24 07:20 40.62599 -74.20715 1241 ft 128 kts 20°
2026-04-24 07:20 40.63399 -74.20233 1045 ft 127 kts 19°
2026-04-24 07:21 40.64220 -74.19696 902 ft 134 kts 22°
2026-04-24 07:21 40.65060 -74.19146 718 ft 136 kts 27°
2026-04-24 07:21 40.65914 -74.18586 530 ft 137 kts 24°
2026-04-24 07:21 40.66762 -74.18057 334 ft 134 kts 25°
2026-04-24 07:22 40.67600 -74.17523 131 ft 133 kts 24°
2026-04-24 07:22 40.68413 -74.17015 28 ft 120 kts 26°
2026-04-24 07:22 40.68988 -74.16645 27 ft 59 kts 26°
2026-04-24 07:22 40.69199 -74.16512 29 ft 22 kts 24°
2026-04-24 07:23 40.69348 -74.16449 29 ft 23 kts
2026-04-24 07:23 40.69505 -74.16460 27 ft 23 kts 356°
2026-04-24 07:23 40.69627 -74.16569 27 ft 23 kts 296°
2026-04-24 07:23 40.69679 -74.16763 26 ft 23 kts 264°
2026-04-24 07:24 40.69630 -74.16963 26 ft 23 kts 250°
2026-04-24 07:24 40.69634 -74.17126 27 ft 15 kts 328°
2026-04-24 07:24 40.69727 -74.17194 27 ft 15 kts 326°
2026-04-24 07:24 40.69810 -74.17297 27 ft 20 kts 314°
2026-04-24 07:25 40.69883 -74.17448 27 ft 20 kts 285°
2026-04-24 07:25 40.69880 -74.17579 27 ft 13 kts 237°
2026-04-24 07:25 40.69822 -74.17633 27 ft 6 kts 167°
2026-04-24 07:25 40.69780 -74.17612 27 ft 6 kts 154°
2026-04-24 07:26 40.69762 -74.17601 27 ft 0 kts 155°